Wind_Speed
15 16 13 12 12 10 10 9 10 10 9 10 10 11 11 10 10 10 10 10 10 10 10 11 10 10 10 9 8 10 11 10 9 7 6 5 4 2 2 3 3 4 4 4 2 0 1 2 2 3 5 6 6 6 6 7 9 10 10 9 8 8 7
17 16 14 13 13 11 11 10 10 10 10 10 10 11 11 11 11 10 10 11 13 13 12 11 11 11 10 10 9 10 10 11 12 11 9 8 7 6 4 3 4 3 2 2 2 2 2 2 2 2 3 4 5 6 7 9 10 11 12 11 9 8 8
18 16 16 14 13 12 11 11 11 10 10 10 10 10 10 10 10 10 10 11 13 12 12 11 12 11 11 11 10 10 10 10 10 11 12 11 9 7 8 6 4 4 2 1 1 2 4 4 2 3 4 4 4 6 9 10 10 9 10 11 10 9 11
20 18 18 16 14 13 12 12 11 11 10 10 10 9 9 9 10 10 10 11 11 11 11 11 11 11 11 11 10 10 10 10 10 9 11 11 9 9 11 11 9 7 6 5 5 6 4 2 3 4 6 8 7 8 10 11 11 10 10 13 12 12 12
21 20 20 17 15 14 13 13 13 12 11 9 9 9 8 9 10 10 10 10 10 10 10 10 10 10 10 10 10 11 10 10 10 10 11 11 10 10 10 10 9 8 8 8 7 7 7 5 4 3 6 8 7 8 12 12 13 12 12 14 14 12 12
21 20 19 17 16 15 14 14 15 14 13 11 9 9 8 8 8 9 9 9 10 10 10 10 11 10 10 10 10 10 11 11 10 11 12 11 10 10 8 8 9 8 7 6 5 5 5 5 4 3 6 9 7 8 12 12 12 11 11 13 14 14 12
21 19 19 18 16 16 15 15 15 15 14 13 12 10 9 8 7 7 7 8 9 10 10 10 10 9 9 10 10 9 10 10 9 11 11 10 10 9 9 9 8 7 6 5 5 6 7 7 7 6 6 7 8 9 10 11 12 10 10 13 13 12 12
21 19 18 18 16 16 16 15 14 15 15 14 14 12 10 9 8 8 8 8 8 8 9 10 10 9 9 9 9 9 9 8 9 10 10 10 9 8 10 10 7 5 4 5 4 4 5 6 7 9 8 5 5 6 7 10 12 10 11 14 15 12 10
21 19 18 19 17 15 16 15 13 13 15 15 15 14 12 12 11 9 8 8 8 8 9 9 9 9 8 7 8 8 8 8 8 7 7 8 8 7 9 8 5 4 4 5 4 2 1 2 3 5 7 7 5 4 4 6 8 9 14 18 16 14 16
21 20 17 19 19 15 15 16 12 11 14 15 16 15 13 12 11 10 10 9 9 8 9 8 8 9 8 7 7 7 7 6 6 6 5 5 5 5 6 5 4 3 4 4 2 2 2 2 2 3 4 6 6 4 3 3 4 7 14 18 17 16 18
21 20 17 17 19 16 14 15 14 11 12 14 16 15 14 13 12 11 10 10 9 9 9 9 9 10 9 8 8 7 7 6 6 6 6 4 4 4 3 4 4 2 3 3 3 3 3 3 3 3 3 4 5 5 3 3 4 6 13 17 18 19 20
18 18 16 15 18 18 15 14 15 14 12 13 15 16 15 14 13 13 12 11 11 10 10 10 10 10 10 9 9 8 8 7 6 6 5 5 4 3 2 3 4 1 2 2 3 3 3 3 3 3 4 3 4 4 5 5 3 5 11 15 18 19 19
15 15 13 13 16 18 17 14 14 16 15 14 15 16 16 16 15 15 14 13 12 12 11 11 11 11 11 11 10 9 8 8 7 7 6 4 4 3 2 2 2 0 1 2 2 1 2 4 4 4 3 3 4 4 5 6 5 7 12 14 16 18 17
13 13 12 11 12 14 17 17 15 15 16 16 16 17 17 17 17 16 16 15 15 14 14 13 13 12 12 11 11 10 10 9 9 8 7 6 5 5 3 3 3 2 2 2 2 2 4 5 6 7 6 6 6 5 4 6 7 8 13 14 15 17 17
10 13 14 13 14 15 16 17 15 14 16 16 16 18 17 17 16 16 16 16 17 16 16 16 15 14 13 12 12 12 11 11 10 10 10 8 7 7 5 4 4 4 3 3 3 4 5 5 5 7 6 5 6 6 5 8 10 10 12 15 15 16 16
8 10 12 12 15 17 17 17 16 15 15 14 14 16 17 18 17 17 17 17 18 18 17 17 16 15 15 14 14 14 13 12 12 11 11 10 9 9 7 5 4 5 5 4 3 3 4 5 5 6 7 7 8 10 9 10 11 11 13 15 14 15 15
5 6 8 8 10 12 12 13 14 13 12 13 13 13 16 18 18 17 19 19 18 18 18 18 18 17 17 16 16 16 15 14 13 13 12 10 10 9 9 7 6 6 6 4 4 4 4 4 5 5 7 7 8 10 10 9 10 11 13 14 14 15 16
3 4 5 6 8 9 7 5 6 8 10 11 10 10 12 15 16 17 20 20 19 18 18 18 19 19 18 18 18 17 15 14 14 13 12 11 10 10 9 8 7 7 6 5 4 5 4 3 4 5 7 8 9 11 12 12 12 13 14 16 17 17 17
3 5 5 5 7 10 10 7 5 7 10 11 13 16 18 17 17 16 17 19 19 19 19 19 19 20 19 19 19 18 16 15 14 13 12 11 10 10 9 8 7 7 7 6 5 5 4 4 4 5 6 8 9 10 12 12 12 13 15 17 18 18 19
2 2 3 4 5 8 10 11 10 10 12 13 15 21 24 21 18 17 17 18 19 19 19 18 19 20 19 20 20 19 17 16 14 13 12 11 10 10 10 8 8 8 7 6 6 5 5 4 4 4 5 6 8 9 11 12 12 14 15 17 17 17 18
5 4 3 3 3 4 6 6 8 10 14 16 17 20 20 18 16 18 20 21 20 20 20 19 19 19 20 21 21 20 18 17 15 14 13 12 11 10 10 9 8 8 8 9 9 8 7 6 6 7 7 6 7 8 9 10 12 14 15 16 17 17 18
6 4 3 3 3 4 4 3 4 7 11 16 20 21 20 19 20 21 22 22 24 24 24 24 24 23 22 22 21 20 19 18 17 16 15 13 12 12 12 11 9 10 11 12 11 10 9 9 11 11 11 9 8 8 8 9 11 13 15 16 17 17 17
5 3 3 3 3 3 3 4 4 7 11 15 17 18 17 18 20 21 21 23 25 25 26 28 29 26 24 23 22 21 20 18 17 16 15 14 13 12 12 11 11 13 14 13 12 12 12 11 10 10 11 11 10 9 8 10 11 12 13 14 16 16 16
5 3 2 2 1 2 3 4 5 8 11 12 11 10 10 12 15 17 20 22 22 23 25 28 28 25 23 23 23 22 20 18 16 15 14 13 13 12 11 10 11 13 14 14 14 14 13 10 8 9 10 10 9 9 10 11 13 13 13 14 15 16 16
3 3 2 1 0 1 2 3 5 6 7 8 8 7 7 9 10 12 15 18 20 20 23 26 26 25 24 24 23 21 19 18 16 14 13 12 11 11 11 11 11 11 11 12 12 12 10 10 10 11 11 10 10 10 11 13 14 15 15 16 16 16 16
3 3 2 1 1 2 4 5 5 6 7 7 7 8 8 8 10 11 12 14 17 18 20 23 25 26 26 25 24 21 20 19 17 14 12 11 11 11 11 11 10 9 9 10 10 10 10 12 13 13 12 12 12 12 13 14 15 17 19 21 21 20 19
2 1 1 1 2 3 5 6 7 7 7 8 8 8 9 10 12 12 10 11 13 14 16 19 21 25 26 26 25 22 19 18 16 13 11 11 12 12 10 8 8 8 9 9 10 10 10 11 11 10 9 10 11 12 14 15 17 19 21 24 26 26 24
2 1 1 2 3 4 5 7 8 8 8 9 9 10 10 12 13 13 11 11 11 11 13 16 18 22 24 24 24 21 17 14 13 12 11 11 11 11 10 9 9 10 11 10 10 11 11 11 11 10 10 11 13 15 16 17 18 20 21 22 24 25 25
2 2 2 2 3 5 6 7 8 8 9 9 9 10 10 11 12 12 12 13 12 12 13 14 16 19 21 23 22 19 14 12 14 13 12 12 12 12 12 11 12 12 13 13 13 14 14 14 14 14 14 15 17 19 19 19 19 19 21 21 22 24 24
3 3 3 3 4 4 5 6 7 8 9 9 10 11 11 10 10 10 12 13 14 14 15 16 17 19 20 21 19 15 12 12 13 11 10 10 10 12 13 12 13 13 13 13 13 13 13 14 15 15 17 18 19 20 19 19 19 19 20 21 22 23 24
4 4 4 5 5 4 5 6 8 9 9 10 11 10 10 10 8 6 10 13 14 15 17 18 18 18 18 18 16 15 13 10 9 9 9 10 12 12 13 14 14 14 14 13 13 12 13 14 14 14 15 16 17 19 19 20 20 20 20 21 21 22 23
5 6 6 6 5 5 6 7 8 9 10 11 11 11 12 10 5 6 10 11 11 13 16 18 18 18 18 16 15 15 13 9 7 8 10 13 14 13 12 12 13 15 16 13 12 12 12 12 12 12 13 14 16 19 20 20 20 21 22 24 25 26 27
8 8 7 7 6 6 7 7 9 10 10 11 11 11 11 8 10 10 8 9 10 12 15 16 17 17 16 15 14 14 12 7 4 6 8 9 9 8 7 7 8 11 12 11 9 9 10 10 12 13 15 17 19 20 21 22 23 25 27 29 29 29 29
10 9 8 8 7 8 8 9 10 11 12 12 11 8 5 10 15 13 9 9 11 11 12 15 17 17 16 15 12 12 11 5 2 5 6 5 4 5 7 6 4 6 8 8 8 10 12 14 16 17 19 19 19 20 21 22 24 24 25 25 25 24 23
11 10 9 9 9 10 10 11 12 13 14 11 7 5 8 14 16 13 11 10 10 11 13 17 18 19 17 15 13 12 10 6 3 4 5 5 6 7 8 7 5 4 5 9 12 15 18 19 19 18 17 17 17 17 18 20 22 23 22 21 21 21 20
13 12 11 12 12 11 11 12 12 13 12 8 8 10 13 17 17 14 13 12 11 14 17 17 18 18 17 15 13 10 8 7 5 5 6 6 6 7 8 7 6 6 10 14 17 18 17 16 15 15 14 15 16 17 18 21 22 22 21 20 19 19 19
16 15 14 15 15 14 13 13 11 8 7 9 12 14 15 16 17 15 14 13 14 17 18 17 16 16 15 13 10 8 6 6 6 6 7 7 7 7 9 10 12 14 17 18 16 15 14 12 12 13 14 16 17 18 20 21 20 19 19 18 18 18 18
Wind_Direction
129 124 125 126 125 123 120 113 105 99 94 94 92 90 90 91 91 86 80 83 91 93 85 80 81 73 73 75 72 79 82 80 85 102 131 143 128 121 157 197 236 261 269 255 232 282 331 307 269 256 266 272 279 286 295 309 314 314 315 318 317 316 324
130 133 135 134 134 135 129 121 114 105 101 100 95 92 91 89 89 87 82 80 85 93 94 90 92 91 87 83 76 75 77 78 80 85 91 95 97 98 101 157 184 182 236 244 206 216 239 267 286 271 262 271 286 292 298 310 313 311 310 310 313 311 309
140 146 142 141 142 140 131 123 118 113 111 106 101 98 95 92 90 87 85 83 84 89 93 95 98 99 97 96 94 88 82 79 79 83 83 80 80 76 67 65 94 121 137 181 171 236 232 227 260 316 321 305 293 300 310 317 319 313 309 306 300 293 291
152 152 145 148 150 145 139 136 131 126 125 120 116 112 108 106 102 95 93 91 92 93 94 97 98 98 98 98 99 97 93 86 81 87 91 87 82 78 72 61 53 59 58 47 33 15 10 2 342 337 329 322 312 312 319 323 323 313 302 299 289 282 284
158 154 150 155 155 154 153 147 141 136 136 135 131 127 123 119 113 107 105 104 103 102 102 106 107 104 103 102 99 95 95 93 89 89 91 91 91 85 77 67 60 61 55 44 34 24 26 21 351 311 316 329 328 324 325 320 315 311 300 291 282 276 275
159 156 156 162 161 161 160 154 150 148 149 150 149 142 135 128 121 117 117 118 117 114 111 111 110 108 106 103 101 97 94 92 88 86 84 86 92 90 85 79 73 70 64 52 42 28 21 8 343 319 334 343 338 319 318 312 306 309 307 297 284 272 267
161 160 161 167 167 166 167 163 161 159 159 161 161 158 151 142 135 132 130 127 125 121 121 121 116 111 109 106 104 100 97 95 94 93 92 90 88 91 98 91 77 74 75 65 49 24 13 13 8 5 353 338 327 314 313 317 316 314 314 314 311 293 277
165 166 166 170 172 173 172 170 170 168 166 167 167 166 161 155 156 154 146 138 135 134 132 130 124 118 119 120 115 110 106 104 97 90 91 96 91 92 100 95 80 70 73 77 64 20 12 18 10 4 354 333 326 322 324 331 329 327 330 331 337 346 343
169 172 173 174 176 180 176 173 176 173 168 169 172 172 167 166 171 167 159 152 148 146 138 131 133 132 129 129 124 118 114 106 99 89 82 88 88 87 95 97 95 69 54 78 82 25 20 33 16 9 354 342 341 333 333 336 329 333 342 339 338 355 9
172 176 180 177 176 181 178 173 177 179 170 170 174 173 169 172 176 169 168 168 161 157 150 146 152 148 142 145 141 133 129 124 125 126 110 90 86 86 82 83 99 76 33 55 53 7 45 42 44 56 7 349 346 338 328 333 330 327 334 337 338 346 356
175 178 184 180 174 176 175 171 177 181 172 170 175 175 172 177 180 175 178 179 172 170 166 164 168 161 156 161 158 153 155 154 148 139 132 127 120 108 93 92 100 65 13 29 7 355 29 25 21 24 356 343 339 336 332 321 318 318 324 330 334 338 342
177 177 183 180 172 173 175 174 180 185 180 174 175 175 176 182 185 182 187 187 182 183 179 177 178 172 171 173 169 171 173 167 162 158 162 167 156 135 119 114 105 72 340 342 332 335 360 353 352 350 337 326 315 317 321 312 295 303 319 326 326 328 332
180 177 179 173 167 172 178 182 185 185 183 181 181 181 182 188 191 190 192 192 190 191 189 190 189 183 184 184 179 183 183 177 177 181 186 185 175 176 175 155 149 229 303 337 344 329 307 299 302 310 306 298 293 285 288 293 285 292 305 313 316 319 322
173 177 186 186 175 173 178 186 195 193 187 186 187 186 186 193 197 195 195 196 196 196 195 196 196 193 195 193 187 190 190 186 190 192 193 193 190 196 204 208 222 252 295 345 349 316 299 284 275 275 261 247 257 258 265 285 289 293 298 303 309 311 310
168 178 189 198 199 195 189 190 195 194 190 191 193 191 192 198 202 200 201 203 202 202 201 201 200 197 200 200 196 198 196 192 197 198 194 196 200 203 207 214 215 218 235 275 296 301 317 324 313 304 294 285 295 299 301 302 300 299 300 302 305 305 307
178 177 176 184 199 207 207 204 200 194 185 186 197 203 200 200 204 206 209 210 208 208 205 204 204 201 203 205 202 203 202 197 200 201 197 201 208 205 204 212 215 211 221 248 275 289 313 322 319 321 323 323 318 309 299 292 287 283 286 292 297 301 304
180 183 180 189 203 208 210 215 220 220 208 199 206 215 210 207 210 212 214 215 215 214 211 209 208 206 207 209 207 207 207 203 204 205 202 204 209 207 203 207 213 217 219 228 249 272 288 292 294 311 322 319 314 312 311 307 298 293 291 295 300 303 304
173 184 187 199 201 193 197 243 271 263 250 243 245 247 229 215 215 217 216 217 218 219 217 214 213 211 210 212 211 210 209 208 208 208 207 208 210 206 201 206 214 215 215 221 236 254 270 287 300 309 316 316 312 312 317 319 314 311 308 304 304 304 303
198 203 206 223 214 202 204 222 249 263 267 268 269 267 257 240 233 233 225 220 222 225 223 220 219 217 215 215 215 213 211 210 210 210 210 211 211 211 208 211 218 215 213 222 230 244 265 283 295 301 307 310 310 311 315 316 312 308 304 300 300 302 301
149 186 203 222 219 212 212 210 216 236 254 257 257 259 259 254 249 244 234 227 226 227 226 226 225 222 219 219 217 213 211 210 208 209 211 209 210 217 218 216 219 218 216 221 229 234 239 244 255 270 290 302 309 314 315 315 312 307 303 300 297 296 296
127 110 117 127 146 181 190 191 197 213 230 239 245 252 256 257 254 246 239 236 234 231 229 227 229 228 224 223 220 214 210 207 204 205 208 208 208 211 212 211 216 221 221 222 225 222 220 234 254 261 270 285 300 311 315 316 316 314 312 308 303 301 300
134 142 149 148 151 155 154 161 179 202 226 234 236 237 237 240 244 245 244 243 242 240 233 228 231 232 228 224 220 213 208 204 201 200 202 205 209 208 208 208 211 219 225 229 227 226 242 266 274 271 271 273 277 291 306 313 316 316 314 311 307 307 307
128 143 165 176 181 170 174 196 205 215 227 230 231 229 223 222 231 238 242 243 243 242 237 233 233 231 226 224 219 210 205 203 201 200 200 202 207 209 211 212 215 220 227 234 236 243 263 277 275 272 272 272 275 282 295 304 307 306 303 300 299 300 303
128 135 141 162 175 171 192 213 221 222 224 230 237 236 225 223 230 239 246 249 247 243 241 239 235 228 224 222 214 203 200 201 201 200 202 204 207 209 213 218 225 229 232 239 247 257 269 276 275 280 278 272 272 277 286 297 298 294 290 287 288 291 292
133 132 118 101 294 272 256 250 249 246 242 243 246 246 244 245 244 247 254 256 250 240 239 240 234 227 224 219 209 198 195 195 194 196 201 205 205 208 216 223 230 237 239 243 249 256 263 268 277 285 281 271 267 272 283 289 287 285 281 279 281 283 284
157 145 146 186 257 279 281 275 267 263 262 260 253 246 249 256 257 259 261 257 245 234 234 236 232 226 221 212 200 191 189 189 188 191 198 202 209 217 224 227 227 233 244 249 249 252 259 266 274 278 272 266 269 275 283 286 284 283 280 275 273 273 276
157 143 189 247 267 276 280 281 277 266 261 265 261 247 241 248 257 261 258 247 238 230 227 226 222 216 208 199 193 188 183 183 184 189 199 210 220 226 231 234 234 239 250 255 255 256 257 259 266 273 269 267 274 281 285 289 291 290 286 279 272 271 273
171 217 287 296 295 292 288 285 281 270 260 260 262 255 246 242 247 253 252 242 233 225 215 207 203 200 194 190 189 181 173 176 182 190 203 210 214 221 230 238 244 248 252 256 258 259 256 253 257 268 274 276 280 282 283 286 289 289 289 286 280 278 277
179 223 264 281 285 290 290 288 284 275 264 260 262 264 258 246 240 241 242 239 231 222 211 199 194 194 192 193 190 179 171 175 178 186 202 210 216 227 234 238 241 247 253 256 257 258 258 256 258 263 271 278 282 281 280 282 283 284 285 285 284 284 284
211 221 242 258 269 278 281 285 286 277 266 261 260 261 263 263 257 241 230 228 226 220 207 194 190 191 193 197 194 183 178 180 183 198 215 223 230 236 237 238 241 245 252 258 260 261 262 262 265 270 274 279 281 280 280 282 284 285 285 285 285 285 285
222 228 245 256 263 274 278 280 281 275 266 263 263 261 261 264 264 238 219 216 217 213 198 187 187 190 193 199 198 189 185 187 198 218 227 229 233 232 236 244 244 241 245 253 257 260 260 262 267 272 276 279 279 278 282 287 289 288 287 286 284 282 281
239 247 251 252 255 266 274 279 279 272 264 259 259 261 261 252 216 185 203 205 201 201 193 186 190 196 199 202 200 192 185 184 203 225 237 239 236 232 237 248 244 236 237 244 252 258 262 264 267 269 273 280 283 283 287 290 289 287 287 288 287 285 282
243 244 242 243 249 255 261 267 271 269 264 256 252 258 257 220 161 154 178 183 178 186 189 189 192 194 191 190 190 186 182 185 228 263 271 262 248 246 257 264 248 236 237 246 258 269 274 278 281 282 284 286 285 285 286 286 286 289 292 293 292 290 287
251 242 237 239 244 248 254 260 261 262 262 254 248 254 232 164 146 137 138 154 168 179 190 196 191 181 175 176 181 188 191 198 289 304 307 320 315 300 304 306 276 238 242 257 271 284 292 296 297 298 298 296 292 291 292 292 293 296 297 296 295 293 291
257 248 244 244 244 245 248 253 255 257 258 249 223 194 164 151 144 136 132 144 166 179 186 189 180 169 167 174 181 191 203 223 288 312 309 319 322 313 313 314 297 256 269 290 301 305 306 308 309 309 310 309 306 304 302 299 298 298 295 294 294 293 294
260 252 246 245 247 246 244 247 253 254 246 218 167 159 159 150 143 140 137 143 160 170 172 172 169 166 169 177 184 192 208 233 264 289 286 279 285 298 305 305 295 287 297 306 312 316 317 317 317 317 316 314 311 307 302 298 296 293 290 289 289 290 290
258 252 249 249 247 241 238 243 250 243 214 175 155 153 154 149 148 146 140 139 150 159 162 162 163 167 170 174 183 194 207 228 252 275 276 268 271 283 286 283 281 284 292 301 310 317 322 323 321 319 316 314 310 304 300 296 293 290 288 288 287 286 286
Height
793 795 797 799 801 803 804 805 805 806 807 808 808 809 809 809 810 810 810 810 811 811 812 812 813 813 814 814 815 815 817 817 818 819 820 821 822 823 823 824 825 825 825 825 825 826 827 827 825 824 824 824 824 823 824 824 824 824 823 823 823 822 822
794 796 798 799 801 803 804 805 806 807 808 808 809 810 810 811 811 811 811 811 811 812 812 813 814 815 815 815 816 816 817 817 818 819 819 821 821 822 822 823 823 824 824 824 825 825 826 827 826 824 823 823 822 822 823 823 823 823 823 822 822 821 821
793 796 798 800 801 803 804 805 806 808 809 809 810 811 811 812 812 812 812 812 813 813 813 814 815 815 816 816 817 817 817 818 819 819 819 820 821 821 822 822 822 823 824 824 824 825 825 826 825 823 822 822 822 821 821 821 821 821 821 821 821 820 820
792 795 797 799 801 803 804 806 807 808 809 810 811 811 812 812 813 813 813 814 814 814 815 815 816 816 817 817 818 818 818 819 819 819 820 820 821 821 821 822 822 823 823 824 825 825 825 825 825 824 823 822 822 821 820 820 820 820 820 820 819 819 819
791 793 796 799 801 802 804 806 807 808 810 811 811 812 812 813 813 814 814 815 815 816 816 816 817 817 817 818 818 819 819 819 820 820 820 820 821 822 822 822 823 823 823 824 825 825 825 825 825 825 823 822 822 821 820 820 819 818 818 818 818 818 818
790 792 795 798 800 802 804 805 806 808 809 811 812 812 813 814 814 815 815 816 816 817 817 817 818 818 819 819 819 820 820 820 820 820 821 821 822 822 823 823 823 824 825 825 825 825 825 825 825 824 824 823 822 821 820 819 818 817 816 816 816 816 816
789 792 794 797 800 801 803 804 806 807 808 810 811 812 813 814 815 815 816 816 817 817 818 818 819 819 820 820 820 821 821 821 821 821 822 822 822 823 823 824 824 824 825 825 825 825 825 825 825 825 824 824 823 821 820 819 818 817 816 815 815 815 815
788 791 794 796 799 800 802 804 805 806 807 809 810 811 813 814 815 815 816 817 817 818 818 819 820 820 821 821 821 821 822 822 822 822 822 822 823 823 823 824 824 824 825 825 825 825 825 825 825 825 825 824 824 822 821 819 818 817 816 815 815 815 816
788 790 793 795 798 800 801 803 805 806 807 808 809 811 812 813 814 815 816 817 817 818 819 819 820 820 821 821 821 822 822 822 823 823 823 823 824 824 824 824 825 825 825 825 825 825 825 825 825 825 825 825 825 824 823 821 820 818 817 815 814 815 816
787 790 792 794 797 799 801 802 804 806 806 807 808 810 812 813 814 815 816 816 817 818 819 820 820 821 821 821 822 822 822 823 823 823 824 824 824 825 825 825 825 825 825 825 825 825 825 825 825 825 825 825 825 825 825 824 822 820 819 817 816 815 815
786 789 792 794 796 798 800 801 803 805 806 807 807 809 812 813 813 815 816 816 817 818 819 819 820 820 821 821 822 822 822 823 823 823 824 824 824 825 825 825 826 826 826 826 826 825 825 826 825 825 825 825 825 825 825 825 824 822 820 819 817 816 816
786 789 791 793 794 796 798 800 802 803 805 806 807 808 810 812 813 814 815 816 816 817 818 819 820 820 820 821 821 822 822 823 824 824 824 824 824 825 825 825 826 826 826 826 826 826 826 826 826 826 826 825 825 825 825 825 824 822 821 820 818 817 817
787 789 790 792 793 794 796 798 800 801 803 804 805 806 809 810 811 812 814 815 816 816 817 818 819 819 820 820 821 822 822 823 824 824 824 824 825 825 825 825 826 826 826 826 825 826 826 826 826 826 826 825 825 825 824 824 824 822 821 821 819 818 817
787 788 790 791 792 793 795 796 798 800 801 803 804 805 807 808 809 811 812 813 814 815 816 817 818 819 820 820 821 821 822 822 823 823 824 824 825 825 825 825 826 826 826 825 825 825 826 826 825 825 825 825 825 825 824 824 823 821 820 820 820 818 817
786 788 789 791 792 793 795 795 797 798 799 801 802 803 805 807 808 810 811 812 813 813 814 815 816 818 819 820 820 821 821 821 822 822 823 824 824 825 825 825 825 825 825 825 825 825 825 825 825 824 824 824 824 824 824 824 824 822 820 820 820 819 817
787 788 789 791 791 792 794 795 797 798 798 800 801 802 804 805 806 808 809 811 811 812 813 814 815 816 818 819 819 820 820 820 821 821 821 822 823 824 824 825 825 825 825 825 825 825 824 824 824 824 824 824 824 824 824 824 823 822 821 819 819 818 817
788 789 790 791 792 793 795 797 798 799 799 800 801 802 803 804 805 806 807 809 810 811 813 813 814 815 816 817 818 818 819 819 820 820 820 821 822 822 822 823 824 824 824 824 824 825 825 824 824 824 824 824 824 824 823 823 822 822 820 819 818 818 817
789 790 790 790 791 792 794 797 801 802 802 803 803 803 804 804 804 804 805 807 809 810 811 812 813 813 814 816 816 817 818 818 819 819 820 820 821 821 821 822 822 823 823 823 824 824 824 824 824 824 824 824 824 823 823 822 822 821 820 819 818 817 817
788 789 790 789 790 792 793 796 800 803 804 804 804 804 804 803 803 803 804 805 807 808 810 811 811 812 813 814 815 816 817 817 818 819 819 820 820 820 821 821 822 822 822 822 823 823 823 823 824 824 824 824 824 823 823 822 822 821 820 819 818 817 816
788 789 789 789 790 792 793 794 796 799 802 803 804 805 805 803 803 803 803 803 804 806 807 809 810 810 811 812 813 814 815 816 817 818 819 819 820 820 820 821 821 821 821 822 822 822 822 823 823 823 823 823 823 823 822 822 822 821 820 819 818 817 815
788 788 789 789 790 791 792 793 793 795 799 801 802 804 804 803 803 802 802 802 802 803 805 806 807 808 809 810 812 813 814 814 815 816 817 818 818 819 819 820 820 821 821 821 821 821 821 821 822 822 822 822 822 822 822 822 821 821 820 819 817 816 815
786 788 789 789 790 789 790 791 791 793 796 798 800 801 801 801 801 800 800 800 800 801 802 802 802 804 805 807 810 811 812 812 812 813 815 816 817 817 817 818 818 819 819 819 820 820 820 821 821 821 821 821 821 821 821 821 821 820 820 819 817 816 814
785 787 788 788 789 788 789 789 790 792 794 796 798 798 798 798 798 798 798 798 798 799 798 798 799 800 803 805 807 808 810 811 812 812 813 814 816 816 817 817 817 817 818 818 819 819 819 820 819 819 820 819 819 819 819 820 820 820 819 818 817 815 814
784 785 786 787 788 787 788 789 790 792 793 794 795 794 794 794 794 795 795 795 796 796 795 796 797 799 801 803 804 806 808 810 811 812 813 814 815 816 817 817 816 816 817 817 817 818 818 818 818 818 818 818 818 818 818 818 818 818 818 817 816 815 813
783 784 785 786 787 787 788 788 789 791 791 791 791 791 792 792 792 792 792 792 792 792 793 794 795 797 799 801 802 804 806 808 809 811 813 814 815 815 816 816 816 815 815 815 816 817 817 817 817 816 816 816 816 816 816 817 816 816 816 815 814 813 812
782 783 784 785 786 786 786 787 787 788 789 789 789 789 790 791 790 791 791 790 790 790 791 792 793 795 797 798 800 802 803 805 807 810 811 812 814 814 815 815 814 815 815 814 814 815 816 816 815 815 815 815 815 815 815 815 814 814 814 813 812 811 811
782 783 783 784 784 784 785 785 786 787 787 787 788 788 789 789 789 790 790 789 788 789 790 791 792 793 795 797 798 800 802 804 806 808 811 812 813 813 813 813 813 814 814 813 813 814 814 815 814 814 814 814 813 813 813 813 812 812 812 811 809 808 808
782 782 782 783 783 783 783 784 784 785 785 786 787 787 787 788 788 789 789 789 788 789 790 791 792 793 794 796 797 799 802 804 805 807 809 811 811 812 812 812 812 812 813 812 812 812 813 813 813 813 812 812 812 812 811 811 811 810 809 808 807 806 805
781 781 782 782 782 782 783 783 783 784 784 785 785 786 786 786 786 787 788 788 788 789 790 792 793 794 795 796 797 799 802 804 804 806 807 809 809 810 810 810 810 811 811 811 811 811 811 811 811 811 811 810 810 810 809 809 809 808 807 806 805 804 803
780 780 781 781 781 782 782 782 782 783 783 783 784 784 785 785 785 785 785 786 787 788 790 791 793 795 796 797 798 800 801 802 803 805 806 808 809 809 809 809 809 809 810 809 809 808 809 809 809 809 808 808 808 807 806 806 806 806 805 804 803 802 801
779 779 780 780 780 780 781 781 781 781 782 782 782 783 783 784 784 784 783 784 786 788 790 791 793 795 797 798 799 800 801 802 804 805 806 807 808 808 808 808 807 808 808 807 807 806 807 807 807 807 806 806 805 804 804 804 803 802 802 801 800 799 798
778 778 778 779 779 779 780 780 780 780 781 781 781 781 782 782 783 782 783 784 786 788 790 791 793 794 796 797 798 800 801 803 804 806 807 807 806 806 806 806 806 806 806 805 805 805 805 805 805 805 805 804 803 802 802 802 800 799 798 797 796 795 794
776 776 777 777 778 778 779 779 779 779 779 780 780 780 781 780 780 781 783 785 786 788 790 791 793 794 796 797 799 801 802 804 805 805 805 805 805 805 806 805 804 805 804 804 804 804 804 804 804 804 804 803 802 801 800 799 798 797 795 794 793 792 791
775 775 775 776 776 777 777 778 778 778 778 778 779 779 779 779 780 781 783 785 786 788 789 790 792 794 796 798 800 801 803 804 805 804 803 803 804 805 805 804 804 804 804 804 804 804 804 803 803 802 802 801 800 799 798 796 795 794 793 791 790 788 787
773 773 774 774 775 775 776 776 776 776 776 777 776 777 778 778 780 782 783 784 786 787 789 790 791 793 796 798 800 802 803 804 804 804 803 804 804 805 805 803 803 803 804 803 803 803 802 802 801 800 799 799 797 797 796 794 793 792 790 789 787 786 785
771 772 772 773 773 774 774 775 775 775 775 774 775 776 777 778 779 781 783 785 786 787 789 791 792 794 796 798 800 801 802 803 803 803 804 804 803 804 804 803 802 802 802 802 802 802 801 800 799 799 798 797 796 795 794 793 791 789 788 787 785 784 783
769 769 770 771 771 771 772 772 773 773 773 773 774 775 777 778 780 781 783 785 786 787 789 791 793 794 796 798 799 800 801 802 803 803 803 803 803 803 803 802 801 800 800 801 801 800 800 799 798 797 796 795 794 793 792 790 789 787 786 784 783 782 781